Find Local Weather

World > North America > United States > North Carolina

Ahoskie, North Carolina Regional Weather

Lat: 36.29N, Lon: 76.99W
Wx Zone: NCZ013
Feedback
Expires:201809221600;;040050
ASUS42 KMHX 221525
RWRMHX
WEATHER ROUNDUP FOR EASTERN NORTH CAROLINA
NATIONAL WEATHER SERVICE NEWPORT/MOREHEAD CITY NC
1100 AM EDT SAT SEP 22 2018

NOTE: "FAIR" INDICATES FEW OR NO CLOUDS BELOW 12,000 FEET
WITH NO SIGNIFICANT WEATHER AND/OR OBSTRUCTIONS TO VISIBILITY


NCZ011>013-027>030-043-044-078>080-089-090>093-098-221600-
COASTAL PLAIN
  
CITY           SKY/WX    TMP DP  RH WIND       PRES   REMARKS
AHOSKIE        FAIR      81  70  70 SW5       30.10F                  
CLINTON        FAIR      81  70  68 SW6       30.14S                  
ELIZABETHTOWN  FAIR      81  67  63 S3        30.14S                  
GOLDSBORO      NOT AVBL                                               
GREENVILLE     FAIR      81  68  65 SW3       30.13S                  
HAVELOCK       MOSUNNY   82  71  68 W7        30.13F                  
KENANSVILLE    FAIR      81  68  65 CALM      30.14S                  
KINSTON        SUNNY     81  66  61 SW7       30.13F                  
NEW BERN       FAIR      80  71  74 SW5       30.14F                  
RICHLANDS      FAIR      81  70  69 SW6       30.14S                  
ROCKY MOUNT    FAIR      81  70  69 SW9       30.12S                  
WASHINGTON     FAIR      82  67  61 SW7       30.13S                  
WHITEVILLE     FAIR      79  68  68 CALM      30.13F                  

$$


SKY/WX - Weather  TMP - Temperature  DP - Dew Point  RH - Relative Humidity
WIND - Wind Direction/Speed PRES - Barometric Pressure